{"data":{"norad_id":54146,"intl_designator":"2022-138AK","name":"ONEWEB-0531","alt_names":[],"object_type":"PAYLOAD","status":"ACTIVE","operator":null,"country":"UK","launch_date":"2022-10-22","launch_site_code":"SRILR","launch_vehicle":null,"mission":null,"orbit_class":"UNKNOWN","rcs_meters":null,"size_class":null,"mass_kg":null,"dimensions":null,"purposes":["comms"],"wikipedia_slug":null,"has_3d_model":false,"image_url":null,"decayed_at":null,"tle_current":{"epoch":"2026-05-25T03:03:11.750112Z","epoch_age_seconds":57450,"freshness":"FRESH","line1":"1 54146U 22138AK  26145.12721933 -.00000031  00000+0 -10708-3 0  9996","line2":"2 54146  87.9173 279.0331 0002296 120.6678 239.4681 13.20771572176261","mean_motion":13.20771572,"eccentricity":0.0002296,"inclination_deg":87.9173,"raan_deg":279.0331,"arg_perigee_deg":120.6678,"mean_anomaly_deg":239.4681,"bstar":-0.00010708,"rev_number":17626,"period_min":109.02718006108,"perigee_km":1180.0385364788,"apogee_km":1183.5100477442,"semimajor_km":7559.9112921115,"source":"CELESTRAK","updated_at":"2026-05-25T13:38:22.591876Z"}}}